Location: Brantley
(31.5822°N, 86.2569°W)
Time: 07:07:39
(UTC+00:00)

Vanguard 3 - Pass Details

Date: 16 February 2026
Orbit: 507 x 3205 km, 33.4° (Epoch: 9 March)

Event Time Altitude Azimuth Distance (km) Brightness Sun altitude
Rises 18:00:10 0° 197° (SSW) 6,897 12.6 46.3°
Reaches altitude 10° 18:08:00 10° 179° (S) 5,458 12.4 46.2°
Maximum altitude 18:15:45 16° 149° (SSE) 4,397 11.7 46.1°
Drops below altitude 10° 18:21:58 10° 117° (ESE) 4,255 11.1 45.9°
Sets 18:26:39 0° 96° (E) 4,730 11.0 45.8°
